FDX236 KGTF-CYYC

Flight info

Callsign FDX236
Flight time 0h 44m
Altitude 28000
Route ETLEM EBGAL7
Aircraft A306/H-SDE3FGHIRWY/LB1

Departure

Time 2026-04-24 01:04
Airport Great Falls International Airport (KGTF)

Arrival

Time 2026-04-24 01:48
Airport Calgary International Airport (CYYC)
Time Latitude Longitude Altitude Speed Heading
2026-04-24 00:48 47.48964 -111.35904 3671 ft 0 kts 315°
2026-04-24 00:51 47.48957 -111.35894 3671 ft 4 kts 315°
2026-04-24 00:51 47.48938 -111.35865 3671 ft 4 kts 318°
2026-04-24 00:51 47.48917 -111.35845 3671 ft 4 kts 349°
2026-04-24 00:51 47.48892 -111.35849 3671 ft 4 kts 35°
2026-04-24 00:52 47.48882 -111.35861 3671 ft 1 kts 45°
2026-04-24 00:52 47.48881 -111.35862 3671 ft 0 kts 45°
2026-04-24 00:55 47.48883 -111.35860 3671 ft 2 kts 45°
2026-04-24 00:55 47.48904 -111.35829 3671 ft 7 kts 44°
2026-04-24 00:55 47.48944 -111.35772 3671 ft 8 kts 45°
2026-04-24 00:55 47.48978 -111.35721 3670 ft 8 kts 45°
2026-04-24 00:56 47.49023 -111.35657 3670 ft 9 kts 44°
2026-04-24 00:56 47.49054 -111.35580 3669 ft 9 kts 88°
2026-04-24 00:56 47.49021 -111.35479 3668 ft 15 kts 127°
2026-04-24 00:56 47.48940 -111.35354 3667 ft 14 kts 135°
2026-04-24 00:57 47.48873 -111.35295 3669 ft 12 kts 181°
2026-04-24 00:57 47.48799 -111.35385 3670 ft 16 kts 225°
2026-04-24 00:57 47.48617 -111.35645 3672 ft 17 kts 212°
2026-04-24 00:58 47.48534 -111.35747 3673 ft 17 kts 225°
2026-04-24 00:58 47.48438 -111.35890 3673 ft 22 kts 225°
2026-04-24 00:58 47.48322 -111.36060 3674 ft 25 kts 224°
2026-04-24 00:58 47.48200 -111.36239 3676 ft 24 kts 225°
2026-04-24 00:59 47.48092 -111.36400 3677 ft 21 kts 225°
2026-04-24 00:59 47.47998 -111.36538 3679 ft 18 kts 225°
2026-04-24 00:59 47.47917 -111.36657 3680 ft 15 kts 224°
2026-04-24 00:59 47.47849 -111.36756 3680 ft 13 kts 225°
2026-04-24 01:00 47.47772 -111.36871 3681 ft 19 kts 225°
2026-04-24 01:00 47.47669 -111.37024 3682 ft 23 kts 225°
2026-04-24 01:00 47.47545 -111.37208 3683 ft 27 kts 225°
2026-04-24 01:00 47.47411 -111.37404 3688 ft 27 kts 224°
2026-04-24 01:01 47.47280 -111.37597 3685 ft 27 kts 225°
2026-04-24 01:01 47.47152 -111.37786 3686 ft 23 kts 224°
2026-04-24 01:01 47.47044 -111.37943 3687 ft 20 kts 225°
2026-04-24 01:01 47.46953 -111.38080 3694 ft 17 kts 225°
2026-04-24 01:02 47.46883 -111.38199 3689 ft 14 kts 246°
2026-04-24 01:02 47.46901 -111.38313 3696 ft 11 kts 307°
2026-04-24 01:02 47.46953 -111.38349 3689 ft 7 kts 18°
2026-04-24 01:02 47.47030 -111.38243 3687 ft 28 kts 45°
2026-04-24 01:03 47.47314 -111.37825 3686 ft 85 kts 45°
2026-04-24 01:03 47.47859 -111.37023 3678 ft 133 kts 45°
2026-04-24 01:03 47.48614 -111.35909 3677 ft 173 kts 45°
2026-04-24 01:03 47.49449 -111.34595 4168 ft 179 kts 44°
2026-04-24 01:04 47.50406 -111.33417 4775 ft 178 kts 17°
2026-04-24 01:04 47.51666 -111.33381 5182 ft 198 kts 338°
2026-04-24 01:04 47.52766 -111.34820 5420 ft 230 kts 302°
2026-04-24 01:04 47.53363 -111.37107 6084 ft 243 kts 291°
2026-04-24 01:05 47.53918 -111.39462 6960 ft 246 kts 295°
2026-04-24 01:05 47.54743 -111.41697 7736 ft 251 kts 308°
2026-04-24 01:05 47.55945 -111.43591 8586 ft 253 kts 319°
2026-04-24 01:05 47.57345 -111.45209 9457 ft 256 kts 325°
2026-04-24 01:06 47.58844 -111.46641 10206 ft 261 kts 328°
2026-04-24 01:06 47.60436 -111.48022 10813 ft 273 kts 329°
2026-04-24 01:06 47.62165 -111.49432 11138 ft 292 kts 331°
2026-04-24 01:06 47.64023 -111.50871 11495 ft 307 kts 332°
2026-04-24 01:07 47.65923 -111.52306 12060 ft 313 kts 332°
2026-04-24 01:07 47.67883 -111.53772 12705 ft 317 kts 332°
2026-04-24 01:07 47.69867 -111.55248 13338 ft 320 kts 332°
2026-04-24 01:07 47.71864 -111.56730 13960 ft 323 kts 331°
2026-04-24 01:08 47.73897 -111.58241 14556 ft 327 kts 331°
2026-04-24 01:08 47.75948 -111.59764 15170 ft 330 kts 331°
2026-04-24 01:08 47.78013 -111.61295 15755 ft 333 kts 330°
2026-04-24 01:08 47.80067 -111.62818 16315 ft 336 kts 330°
2026-04-24 01:09 47.82176 -111.64382 16890 ft 338 kts 330°
2026-04-24 01:09 47.84293 -111.65954 17435 ft 341 kts 330°
2026-04-24 01:09 47.86426 -111.67538 17984 ft 343 kts 329°
2026-04-24 01:09 47.88570 -111.69134 18505 ft 346 kts 329°
2026-04-24 01:10 47.90710 -111.70733 18954 ft 348 kts 329°
2026-04-24 01:10 47.92891 -111.72373 19367 ft 353 kts 329°
2026-04-24 01:10 47.95112 -111.74025 19814 ft 357 kts 329°
2026-04-24 01:10 47.97341 -111.75698 20300 ft 359 kts 329°
2026-04-24 01:11 47.99586 -111.77370 20668 ft 363 kts 329°
2026-04-24 01:11 48.01857 -111.79071 21122 ft 366 kts 330°
2026-04-24 01:11 48.04121 -111.80769 21575 ft 369 kts 330°
2026-04-24 01:11 48.06439 -111.82508 22016 ft 373 kts 330°
2026-04-24 01:12 48.08761 -111.84251 22459 ft 376 kts 330°
2026-04-24 01:12 48.11086 -111.86000 22884 ft 379 kts 330°
2026-04-24 01:12 48.13484 -111.87806 23304 ft 382 kts 330°
2026-04-24 01:12 48.15829 -111.89572 23683 ft 385 kts 330°
2026-04-24 01:13 48.18241 -111.91391 24064 ft 388 kts 330°
2026-04-24 01:13 48.20665 -111.93222 24441 ft 391 kts 330°
2026-04-24 01:13 48.23104 -111.95067 24823 ft 393 kts 330°
2026-04-24 01:13 48.25556 -111.96925 25199 ft 395 kts 330°
2026-04-24 01:14 48.28020 -111.98792 25566 ft 397 kts 330°
2026-04-24 01:14 48.30479 -112.00656 26027 ft 396 kts 330°
2026-04-24 01:14 48.32938 -112.02522 26508 ft 395 kts 330°
2026-04-24 01:14 48.35386 -112.04382 26991 ft 393 kts 330°
2026-04-24 01:15 48.37818 -112.06233 27422 ft 393 kts 330°
2026-04-24 01:15 48.40256 -112.08092 27833 ft 392 kts 330°
2026-04-24 01:15 48.42698 -112.09954 27994 ft 393 kts 330°
2026-04-24 01:16 48.47550 -112.13661 28012 ft 393 kts 330°
2026-04-24 01:16 48.52430 -112.17396 28014 ft 394 kts 330°
2026-04-24 01:17 48.57393 -112.21207 28011 ft 408 kts 330°
2026-04-24 01:17 48.62565 -112.25187 28013 ft 427 kts 330°
2026-04-24 01:18 48.67935 -112.29328 28012 ft 443 kts 331°
2026-04-24 01:18 48.73484 -112.33612 28001 ft 447 kts 331°
2026-04-24 01:19 48.79013 -112.37892 27998 ft 448 kts 331°
2026-04-24 01:19 48.84581 -112.42215 28010 ft 448 kts 331°
2026-04-24 01:20 48.90112 -112.46521 28001 ft 449 kts 331°
2026-04-24 01:20 48.92904 -112.48699 28000 ft 449 kts 331°
2026-04-24 01:20 48.95660 -112.50852 28016 ft 449 kts 331°
2026-04-24 01:20 48.98445 -112.53030 28000 ft 450 kts 331°
2026-04-24 01:21 49.01238 -112.55218 28001 ft 450 kts 331°
2026-04-24 01:21 49.06808 -112.59587 28010 ft 450 kts 331°
2026-04-24 01:21 49.09567 -112.61756 28000 ft 450 kts 331°
2026-04-24 01:22 49.12366 -112.63958 28008 ft 451 kts 331°
2026-04-24 01:22 49.17918 -112.68335 28015 ft 451 kts 331°
2026-04-24 01:23 49.23505 -112.72752 28018 ft 451 kts 331°
2026-04-24 01:23 49.29083 -112.77174 28019 ft 451 kts 331°
2026-04-24 01:24 49.34646 -112.81592 28016 ft 451 kts 331°
2026-04-24 01:24 49.40204 -112.86019 28014 ft 451 kts 331°
2026-04-24 01:25 49.46031 -112.89639 28015 ft 453 kts 343°
2026-04-24 01:25 49.52130 -112.91948 28013 ft 453 kts 345°
2026-04-24 01:26 49.58247 -112.94227 28020 ft 453 kts 345°
2026-04-24 01:26 49.64380 -112.96531 28019 ft 453 kts 345°
2026-04-24 01:27 49.70517 -112.98847 28014 ft 454 kts 345°
2026-04-24 01:27 49.76666 -113.01178 28013 ft 453 kts 345°
2026-04-24 01:28 49.82767 -113.03498 28019 ft 453 kts 345°
2026-04-24 01:28 49.88897 -113.05833 28019 ft 453 kts 345°
2026-04-24 01:29 49.94999 -113.08163 28020 ft 457 kts 345°
2026-04-24 01:29 50.01219 -113.10543 28025 ft 460 kts 345°
2026-04-24 01:30 50.07455 -113.12936 28026 ft 463 kts 345°
2026-04-24 01:30 50.13689 -113.15336 28027 ft 465 kts 345°
2026-04-24 01:31 50.19967 -113.17761 28022 ft 460 kts 345°
2026-04-24 01:31 50.25138 -113.19762 28023 ft 458 kts 345°
2026-04-24 01:31 50.28226 -113.20961 27875 ft 458 kts 345°
2026-04-24 01:32 50.32328 -113.22554 27152 ft 458 kts 345°
2026-04-24 01:32 50.34415 -113.23364 26697 ft 457 kts 345°
2026-04-24 01:32 50.37473 -113.24553 25973 ft 455 kts 345°
2026-04-24 01:32 50.40543 -113.25749 25100 ft 454 kts 345°
2026-04-24 01:33 50.43602 -113.26941 24290 ft 450 kts 344°
2026-04-24 01:33 50.46625 -113.28120 23481 ft 442 kts 344°
2026-04-24 01:33 50.49582 -113.29277 22628 ft 436 kts 344°
2026-04-24 01:33 50.52509 -113.30423 21787 ft 427 kts 344°
2026-04-24 01:34 50.55334 -113.31533 21089 ft 419 kts 343°
2026-04-24 01:34 50.58148 -113.32645 20412 ft 414 kts 343°
2026-04-24 01:34 50.60924 -113.33735 19757 ft 408 kts 343°
2026-04-24 01:34 50.63644 -113.34803 19072 ft 400 kts 343°
2026-04-24 01:35 50.66334 -113.35866 18396 ft 395 kts 343°
2026-04-24 01:35 50.68926 -113.37120 17671 ft 378 kts 335°
2026-04-24 01:35 50.71121 -113.39166 16932 ft 358 kts 322°
2026-04-24 01:35 50.72980 -113.41580 16217 ft 344 kts 319°
2026-04-24 01:36 50.74764 -113.44017 15490 ft 332 kts 319°
2026-04-24 01:36 50.76482 -113.46372 14755 ft 321 kts 319°
2026-04-24 01:36 50.78140 -113.48645 14034 ft 312 kts 319°
2026-04-24 01:36 50.79763 -113.50864 13382 ft 301 kts 320°
2026-04-24 01:37 50.81314 -113.52984 12872 ft 288 kts 320°
2026-04-24 01:37 50.82783 -113.54997 12362 ft 277 kts 320°
2026-04-24 01:37 50.84214 -113.56955 11861 ft 267 kts 320°
2026-04-24 01:37 50.85598 -113.58850 11348 ft 259 kts 320°
2026-04-24 01:38 50.86945 -113.60694 10850 ft 251 kts 321°
2026-04-24 01:38 50.88234 -113.62464 10345 ft 246 kts 321°
2026-04-24 01:38 50.89511 -113.64216 9840 ft 239 kts 321°
2026-04-24 01:38 50.90763 -113.65931 9338 ft 234 kts 321°
2026-04-24 01:39 50.91917 -113.67695 9012 ft 226 kts 312°
2026-04-24 01:39 50.92633 -113.69805 8959 ft 218 kts 294°
2026-04-24 01:39 50.92841 -113.72209 9034 ft 222 kts 281°
2026-04-24 01:39 50.92850 -113.74623 8912 ft 216 kts 279°
2026-04-24 01:40 50.92833 -113.76992 8551 ft 214 kts 279°
2026-04-24 01:40 50.92808 -113.79349 8199 ft 215 kts 277°
2026-04-24 01:40 50.92489 -113.81704 7859 ft 229 kts 257°
2026-04-24 01:40 50.91613 -113.83888 7503 ft 238 kts 244°
2026-04-24 01:41 50.90615 -113.85992 7149 ft 238 kts 243°
2026-04-24 01:41 50.89610 -113.88098 6818 ft 238 kts 243°
2026-04-24 01:41 50.88623 -113.90167 6546 ft 237 kts 243°
2026-04-24 01:41 50.87784 -113.92340 6489 ft 222 kts 263°
2026-04-24 01:42 50.87623 -113.94672 6503 ft 208 kts 281°
2026-04-24 01:42 50.87702 -113.96954 6495 ft 205 kts 287°
2026-04-24 01:42 50.88203 -113.98937 6500 ft 192 kts 310°
2026-04-24 01:42 50.89027 -114.00597 6500 ft 190 kts 315°
2026-04-24 01:43 50.89886 -114.02204 6496 ft 191 kts 315°
2026-04-24 01:43 50.90755 -114.03810 6499 ft 193 kts 315°
2026-04-24 01:43 50.91683 -114.05300 6486 ft 190 kts 329°
2026-04-24 01:43 50.92948 -114.05777 6490 ft 193 kts
2026-04-24 01:44 50.94178 -114.04930 6491 ft 196 kts 27°
2026-04-24 01:44 50.95234 -114.03550 6267 ft 197 kts 32°
2026-04-24 01:44 50.96286 -114.02201 5910 ft 188 kts 18°
2026-04-24 01:44 50.97513 -114.01991 5592 ft 177 kts 352°
2026-04-24 01:45 50.98732 -114.02150 5492 ft 176 kts 355°
2026-04-24 01:45 50.99898 -114.02152 5427 ft 159 kts 358°
2026-04-24 01:45 51.00939 -114.02132 5265 ft 142 kts 356°
2026-04-24 01:45 51.01888 -114.02138 5101 ft 132 kts 357°
2026-04-24 01:46 51.02800 -114.02137 4917 ft 129 kts 358°
2026-04-24 01:46 51.03692 -114.02132 4738 ft 128 kts 358°
2026-04-24 01:46 51.04573 -114.02135 4583 ft 128 kts 358°
2026-04-24 01:46 51.05473 -114.02139 4399 ft 129 kts 359°
2026-04-24 01:47 51.06374 -114.02140 4232 ft 130 kts 358°
2026-04-24 01:47 51.07284 -114.02146 4050 ft 131 kts 359°
2026-04-24 01:47 51.08182 -114.02147 3887 ft 127 kts
2026-04-24 01:47 51.09052 -114.02142 3731 ft 124 kts 359°
2026-04-24 01:48 51.09897 -114.02138 3577 ft 118 kts 358°
2026-04-24 01:48 51.10631 -114.02138 3562 ft 89 kts 359°
2026-04-24 01:48 51.11094 -114.02136 3563 ft 53 kts 360°
2026-04-24 01:48 51.11357 -114.02138 3557 ft 17 kts 359°
2026-04-24 01:49 51.11424 -114.02182 3556 ft 9 kts 297°
2026-04-24 01:49 51.11432 -114.02303 3557 ft 13 kts 270°
2026-04-24 01:49 51.11463 -114.02406 3557 ft 11 kts 338°
2026-04-24 01:49 51.11558 -114.02417 3557 ft 16 kts
2026-04-24 01:50 51.11662 -114.02417 3556 ft 14 kts 360°
2026-04-24 01:50 51.11759 -114.02417 3555 ft 13 kts
2026-04-24 01:50 51.11843 -114.02434 3554 ft 11 kts 335°
2026-04-24 01:50 51.11895 -114.02517 3552 ft 10 kts 312°
2026-04-24 01:51 51.11941 -114.02596 3553 ft 9 kts 312°
2026-04-24 01:51 51.11980 -114.02672 3552 ft 8 kts 296°
2026-04-24 01:51 51.11979 -114.02748 3552 ft 6 kts 246°
2026-04-24 01:51 51.11957 -114.02783 3552 ft 0 kts 221°